1588111234,2020-04-29 00:00,458.00,-30
1588111294,2020-04-29 00:01,457.00,-30
1588111354,2020-04-29 00:02,460.00,-29
1588111414,2020-04-29 00:03,460.00,-30
1588111474,2020-04-29 00:04,457.00,-29
1588111534,2020-04-29 00:05,460.00,-28
1588111594,2020-04-29 00:06,458.00,-30
1588111654,2020-04-29 00:07,460.00,-29
1588111714,2020-04-29 00:08,459.00,-29
1588111775,2020-04-29 00:09,458.00,-29
1588111835,2020-04-29 00:10,458.00,-29
1588111895,2020-04-29 00:11,457.00,-32
1588111955,2020-04-29 00:12,460.00,-29
1588112015,2020-04-29 00:13,462.00,-28
1588112075,2020-04-29 00:14,460.00,-28
1588112135,2020-04-29 00:15,459.00,-29
1588112195,2020-04-29 00:16,459.00,-31
1588112255,2020-04-29 00:17,462.00,-29
1588112315,2020-04-29 00:18,458.00,-31
1588112375,2020-04-29 00:19,459.00,-29
1588112435,2020-04-29 00:20,460.00,-32
1588112496,2020-04-29 00:21,460.00,-29
1588112556,2020-04-29 00:22,458.00,-28
1588112616,2020-04-29 00:23,452.00,-29
1588112676,2020-04-29 00:24,455.00,-30
1588112736,2020-04-29 00:25,454.00,-30
1588112796,2020-04-29 00:26,452.00,-28
1588112856,2020-04-29 00:27,453.00,-28
1588112916,2020-04-29 00:28,455.00,-27
1588112977,2020-04-29 00:29,453.00,-28
1588113037,2020-04-29 00:30,452.00,-28
1588113097,2020-04-29 00:31,453.00,-28
1588113157,2020-04-29 00:32,453.00,-30
1588113217,2020-04-29 00:33,452.00,-28
1588113277,2020-04-29 00:34,453.00,-33
1588113337,2020-04-29 00:35,453.00,-27
1588113397,2020-04-29 00:36,454.00,-29
1588113457,2020-04-29 00:37,449.00,-27
1588113517,2020-04-29 00:38,450.00,-27
1588113577,2020-04-29 00:39,451.00,-29
1588113638,2020-04-29 00:40,452.00,-27
1588113698,2020-04-29 00:41,452.00,-27
1588113758,2020-04-29 00:42,452.00,-29
1588113818,2020-04-29 00:43,452.00,-27
1588113878,2020-04-29 00:44,450.00,-27
1588113938,2020-04-29 00:45,453.00,-30
1588113998,2020-04-29 00:46,451.00,-27
1588114058,2020-04-29 00:47,450.00,-28
1588114119,2020-04-29 00:48,450.00,-27
1588114179,2020-04-29 00:49,451.00,-27
1588114239,2020-04-29 00:50,453.00,-29
1588114299,2020-04-29 00:51,451.00,-29
1588114359,2020-04-29 00:52,452.00,-29
1588114419,2020-04-29 00:53,450.00,-28
1588114479,2020-04-29 00:54,453.00,-27
1588114539,2020-04-29 00:55,452.00,-27
1588114599,2020-04-29 00:56,450.00,-28
1588114659,2020-04-29 00:57,451.00,-29
1588114719,2020-04-29 00:58,449.00,-28
1588114779,2020-04-29 00:59,450.00,-29
1588114840,2020-04-29 01:00,450.00,-29
1588114900,2020-04-29 01:01,450.00,-32
1588114960,2020-04-29 01:02,453.00,-31
1588115020,2020-04-29 01:03,453.00,-32
1588115080,2020-04-29 01:04,451.00,-32
1588115140,2020-04-29 01:05,452.00,-29
1588115200,2020-04-29 01:06,451.00,-29
1588115260,2020-04-29 01:07,451.00,-30
1588115320,2020-04-29 01:08,451.00,-31
1588115380,2020-04-29 01:09,454.00,-32
1588115440,2020-04-29 01:10,458.00,-30
1588115500,2020-04-29 01:11,451.00,-34
1588115560,2020-04-29 01:12,454.00,-32
1588115621,2020-04-29 01:13,452.00,-34
1588115681,2020-04-29 01:14,452.00,-31
1588115741,2020-04-29 01:15,452.00,-30
1588115801,2020-04-29 01:16,452.00,-31
1588115861,2020-04-29 01:17,452.00,-31
1588115921,2020-04-29 01:18,456.00,-29
1588115981,2020-04-29 01:19,452.00,-28
1588116041,2020-04-29 01:20,455.00,-27
1588116101,2020-04-29 01:21,453.00,-29
1588116161,2020-04-29 01:22,455.00,-28
1588116221,2020-04-29 01:23,452.00,-31
1588116281,2020-04-29 01:24,452.00,-30
1588116341,2020-04-29 01:25,454.00,-29
1588116401,2020-04-29 01:26,454.00,-27
1588116462,2020-04-29 01:27,456.00,-27
1588116522,2020-04-29 01:28,453.00,-29
1588116582,2020-04-29 01:29,455.00,-28
1588116642,2020-04-29 01:30,453.00,-28
1588116702,2020-04-29 01:31,454.00,-28
1588116762,2020-04-29 01:32,454.00,-30
1588116822,2020-04-29 01:33,452.00,-28
1588116882,2020-04-29 01:34,455.00,-28
1588116942,2020-04-29 01:35,450.00,-27
1588117002,2020-04-29 01:36,450.00,-30
1588117062,2020-04-29 01:37,451.00,-32
1588117122,2020-04-29 01:38,452.00,-29
1588117182,2020-04-29 01:39,451.00,-28
1588117242,2020-04-29 01:40,451.00,-29
1588117302,2020-04-29 01:41,453.00,-29
1588117362,2020-04-29 01:42,453.00,-32
1588117423,2020-04-29 01:43,452.00,-30
1588117483,2020-04-29 01:44,452.00,-28
1588117543,2020-04-29 01:45,453.00,-32
1588117603,2020-04-29 01:46,450.00,-29
1588117663,2020-04-29 01:47,454.00,-30
1588117723,2020-04-29 01:48,453.00,-32
1588117783,2020-04-29 01:49,453.00,-30
1588117843,2020-04-29 01:50,455.00,-27
1588117903,2020-04-29 01:51,454.00,-30
1588117963,2020-04-29 01:52,451.00,-30
1588118023,2020-04-29 01:53,456.00,-27
1588118083,2020-04-29 01:54,452.00,-27
1588118143,2020-04-29 01:55,453.00,-32
1588118203,2020-04-29 01:56,453.00,-29
1588118263,2020-04-29 01:57,457.00,-27
1588118323,2020-04-29 01:58,452.00,-29
1588118384,2020-04-29 01:59,452.00,-28
1588118444,2020-04-29 02:00,453.00,-27
1588118504,2020-04-29 02:01,453.00,-29
1588118564,2020-04-29 02:02,454.00,-29
1588118624,2020-04-29 02:03,454.00,-32
1588118684,2020-04-29 02:04,454.00,-33
1588118744,2020-04-29 02:05,455.00,-27
1588118804,2020-04-29 02:06,454.00,-28
1588118864,2020-04-29 02:07,453.00,-27
1588118924,2020-04-29 02:08,453.00,-27
1588118984,2020-04-29 02:09,452.00,-29
1588119044,2020-04-29 02:10,454.00,-28
1588119104,2020-04-29 02:11,453.00,-27
1588119164,2020-04-29 02:12,456.00,-28
1588119224,2020-04-29 02:13,454.00,-29
1588119284,2020-04-29 02:14,453.00,-27
1588119344,2020-04-29 02:15,453.00,-29
1588119404,2020-04-29 02:16,452.00,-28
1588119465,2020-04-29 02:17,449.00,-27
1588119525,2020-04-29 02:18,452.00,-29
1588119585,2020-04-29 02:19,451.00,-28
1588119645,2020-04-29 02:20,454.00,-28
1588119705,2020-04-29 02:21,452.00,-27
1588119765,2020-04-29 02:22,454.00,-28
1588119825,2020-04-29 02:23,453.00,-29
1588119886,2020-04-29 02:24,453.00,-28
1588119946,2020-04-29 02:25,449.00,-28
1588120006,2020-04-29 02:26,452.00,-27
1588120066,2020-04-29 02:27,451.00,-27
1588120126,2020-04-29 02:28,450.00,-28
1588120186,2020-04-29 02:29,451.00,-27
1588120246,2020-04-29 02:30,450.00,-27
1588120306,2020-04-29 02:31,453.00,-27
1588120366,2020-04-29 02:32,450.00,-27
1588120426,2020-04-29 02:33,452.00,-29
1588120486,2020-04-29 02:34,452.00,-28
1588120547,2020-04-29 02:35,452.00,-30
1588120607,2020-04-29 02:36,452.00,-27
1588120667,2020-04-29 02:37,453.00,-27
1588120727,2020-04-29 02:38,453.00,-29
1588120787,2020-04-29 02:39,453.00,-27
1588120847,2020-04-29 02:40,451.00,-28
1588120907,2020-04-29 02:41,451.00,-27
1588120967,2020-04-29 02:42,452.00,-28
1588121027,2020-04-29 02:43,451.00,-29
1588121087,2020-04-29 02:44,451.00,-28
1588121147,2020-04-29 02:45,451.00,-28
1588121207,2020-04-29 02:46,452.00,-28
1588121267,2020-04-29 02:47,453.00,-29
1588121327,2020-04-29 02:48,453.00,-28
1588121387,2020-04-29 02:49,453.00,-27
1588121447,2020-04-29 02:50,451.00,-29
1588121508,2020-04-29 02:51,454.00,-28
1588121568,2020-04-29 02:52,452.00,-27
1588121628,2020-04-29 02:53,450.00,-27
1588121688,2020-04-29 02:54,453.00,-28
1588121748,2020-04-29 02:55,451.00,-27
1588121808,2020-04-29 02:56,453.00,-30
1588121868,2020-04-29 02:57,453.00,-27
1588121928,2020-04-29 02:58,453.00,-29
1588121988,2020-04-29 02:59,452.00,-28
1588122048,2020-04-29 03:00,452.00,-29
1588122108,2020-04-29 03:01,450.00,-29
1588122168,2020-04-29 03:02,450.00,-28
1588122228,2020-04-29 03:03,451.00,-27
1588122288,2020-04-29 03:04,449.00,-29
1588122348,2020-04-29 03:05,452.00,-27
1588122408,2020-04-29 03:06,452.00,-30
1588122468,2020-04-29 03:07,451.00,-27
1588122528,2020-04-29 03:08,452.00,-29
1588122588,2020-04-29 03:09,453.00,-28
1588122648,2020-04-29 03:10,453.00,-27
1588122708,2020-04-29 03:11,454.00,-27
1588122769,2020-04-29 03:12,454.00,-29
1588122829,2020-04-29 03:13,457.00,-29
1588122889,2020-04-29 03:14,460.00,-27
1588122949,2020-04-29 03:15,461.00,-27
1588123009,2020-04-29 03:16,456.00,-27
1588123069,2020-04-29 03:17,459.00,-31
1588123129,2020-04-29 03:18,457.00,-28
1588123189,2020-04-29 03:19,459.00,-29
1588123249,2020-04-29 03:20,459.00,-29
1588123309,2020-04-29 03:21,457.00,-27
1588123369,2020-04-29 03:22,457.00,-27
1588123429,2020-04-29 03:23,457.00,-28
1588123489,2020-04-29 03:24,458.00,-28
1588123549,2020-04-29 03:25,459.00,-27
1588123609,2020-04-29 03:26,463.00,-28
1588123669,2020-04-29 03:27,461.00,-28
1588123729,2020-04-29 03:28,459.00,-27
1588123789,2020-04-29 03:29,460.00,-28
1588123849,2020-04-29 03:30,461.00,-29
1588123909,2020-04-29 03:31,458.00,-28
1588123970,2020-04-29 03:32,460.00,-29
1588124030,2020-04-29 03:33,460.00,-29
1588124090,2020-04-29 03:34,461.00,-30
1588124150,2020-04-29 03:35,460.00,-28
1588124210,2020-04-29 03:36,459.00,-29
1588124270,2020-04-29 03:37,459.00,-29
1588124330,2020-04-29 03:38,460.00,-30
1588124390,2020-04-29 03:39,463.00,-27
1588124450,2020-04-29 03:40,461.00,-30
1588124510,2020-04-29 03:41,461.00,-29
1588124570,2020-04-29 03:42,462.00,-28
1588124630,2020-04-29 03:43,461.00,-27
1588124690,2020-04-29 03:44,461.00,-27
1588124750,2020-04-29 03:45,461.00,-27
1588124810,2020-04-29 03:46,459.00,-29
1588124870,2020-04-29 03:47,460.00,-28
1588124930,2020-04-29 03:48,464.00,-27
1588124990,2020-04-29 03:49,460.00,-29
1588125050,2020-04-29 03:50,462.00,-27
1588125110,2020-04-29 03:51,465.00,-28
1588125170,2020-04-29 03:52,467.00,-28
1588125231,2020-04-29 03:53,466.00,-29
1588125291,2020-04-29 03:54,468.00,-28
1588125351,2020-04-29 03:55,473.00,-27
1588125411,2020-04-29 03:56,473.00,-27
1588125471,2020-04-29 03:57,472.00,-28
1588125531,2020-04-29 03:58,470.00,-27
1588125591,2020-04-29 03:59,473.00,-28
1588125651,2020-04-29 04:00,473.00,-27
1588125711,2020-04-29 04:01,470.00,-29
1588125771,2020-04-29 04:02,471.00,-28
1588125831,2020-04-29 04:03,467.00,-27
1588125891,2020-04-29 04:04,470.00,-27
1588125951,2020-04-29 04:05,468.00,-27
1588126011,2020-04-29 04:06,469.00,-27
1588126071,2020-04-29 04:07,469.00,-28
1588126131,2020-04-29 04:08,467.00,-27
1588126191,2020-04-29 04:09,469.00,-28
1588126251,2020-04-29 04:10,469.00,-29
1588126311,2020-04-29 04:11,470.00,-29
1588126371,2020-04-29 04:12,472.00,-27
1588126431,2020-04-29 04:13,475.00,-29
1588126491,2020-04-29 04:14,474.00,-28
1588126551,2020-04-29 04:15,473.00,-28
1588126611,2020-04-29 04:16,472.00,-29
1588126672,2020-04-29 04:17,474.00,-27
1588126732,2020-04-29 04:18,475.00,-30
1588126792,2020-04-29 04:19,475.00,-27
1588126852,2020-04-29 04:20,476.00,-30
1588126912,2020-04-29 04:21,476.00,-29
1588126972,2020-04-29 04:22,478.00,-31
1588127032,2020-04-29 04:23,476.00,-28
1588127092,2020-04-29 04:24,474.00,-28
1588127152,2020-04-29 04:25,474.00,-31
1588127212,2020-04-29 04:26,478.00,-27
1588127272,2020-04-29 04:27,477.00,-29
1588127332,2020-04-29 04:28,477.00,-28
1588127392,2020-04-29 04:29,476.00,-30
1588127452,2020-04-29 04:30,476.00,-30
1588127512,2020-04-29 04:31,477.00,-28
1588127572,2020-04-29 04:32,475.00,-30
1588127632,2020-04-29 04:33,477.00,-27
1588127692,2020-04-29 04:34,474.00,-28
1588127752,2020-04-29 04:35,474.00,-28
1588127813,2020-04-29 04:36,478.00,-29
1588127873,2020-04-29 04:37,478.00,-30
1588127933,2020-04-29 04:38,478.00,-29
1588127993,2020-04-29 04:39,480.00,-28
1588128053,2020-04-29 04:40,483.00,-28
1588128113,2020-04-29 04:41,483.00,-29
1588128173,2020-04-29 04:42,484.00,-28
1588128233,2020-04-29 04:43,489.00,-28
1588128293,2020-04-29 04:44,488.00,-28
1588128353,2020-04-29 04:45,486.00,-27
1588128413,2020-04-29 04:46,485.00,-30
1588128473,2020-04-29 04:47,479.00,-32
1588128533,2020-04-29 04:48,477.00,-28
1588128593,2020-04-29 04:49,474.00,-29
1588128653,2020-04-29 04:50,478.00,-28
1588128713,2020-04-29 04:51,476.00,-28
1588128773,2020-04-29 04:52,478.00,-30
1588128834,2020-04-29 04:53,482.00,-29
1588128894,2020-04-29 04:54,483.00,-30
1588128954,2020-04-29 04:55,480.00,-28
1588129014,2020-04-29 04:56,479.00,-27
1588129074,2020-04-29 04:57,482.00,-27
1588129134,2020-04-29 04:58,485.00,-28
1588129194,2020-04-29 04:59,482.00,-30
1588129254,2020-04-29 05:00,484.00,-28
1588129314,2020-04-29 05:01,484.00,-30
1588129374,2020-04-29 05:02,483.00,-27
1588129434,2020-04-29 05:03,483.00,-29
1588129494,2020-04-29 05:04,485.00,-29
1588129554,2020-04-29 05:05,487.00,-28
1588129614,2020-04-29 05:06,488.00,-27
1588129674,2020-04-29 05:07,491.00,-27
1588129734,2020-04-29 05:08,493.00,-29
1588129794,2020-04-29 05:09,490.00,-28
1588129854,2020-04-29 05:10,493.00,-30
1588129914,2020-04-29 05:11,495.00,-29
1588129974,2020-04-29 05:12,498.00,-28
1588130034,2020-04-29 05:13,498.00,-27
1588130094,2020-04-29 05:14,498.00,-29
1588130155,2020-04-29 05:15,500.00,-30
1588130215,2020-04-29 05:16,500.00,-28
1588130275,2020-04-29 05:17,503.00,-28
1588130335,2020-04-29 05:18,503.00,-27
1588130395,2020-04-29 05:19,501.00,-27
1588130455,2020-04-29 05:20,502.00,-27
1588130515,2020-04-29 05:21,502.00,-31
1588130575,2020-04-29 05:22,501.00,-31
1588130635,2020-04-29 05:23,504.00,-30
1588130695,2020-04-29 05:24,499.00,-27
1588130755,2020-04-29 05:25,499.00,-27
1588130815,2020-04-29 05:26,496.00,-32
1588130875,2020-04-29 05:27,494.00,-29
1588130935,2020-04-29 05:28,495.00,-29
1588130995,2020-04-29 05:29,484.00,-29
1588131055,2020-04-29 05:30,477.00,-29
1588131115,2020-04-29 05:31,476.00,-31
1588131175,2020-04-29 05:32,476.00,-28
1588131235,2020-04-29 05:33,479.00,-30
1588131295,2020-04-29 05:34,482.00,-29
1588131355,2020-04-29 05:35,486.00,-28
1588131415,2020-04-29 05:36,487.00,-28
1588131475,2020-04-29 05:37,491.00,-27
1588131535,2020-04-29 05:38,492.00,-27
1588131596,2020-04-29 05:39,485.00,-29
1588131656,2020-04-29 05:40,479.00,-30
1588131716,2020-04-29 05:41,480.00,-27
1588131776,2020-04-29 05:42,482.00,-27
1588131836,2020-04-29 05:43,483.00,-28
1588131896,2020-04-29 05:44,483.00,-28
1588131956,2020-04-29 05:45,482.00,-27
1588132016,2020-04-29 05:46,479.00,-28
1588132076,2020-04-29 05:47,478.00,-27
1588132136,2020-04-29 05:48,478.00,-27
1588132196,2020-04-29 05:49,475.00,-28
1588132256,2020-04-29 05:50,479.00,-27
1588132316,2020-04-29 05:51,477.00,-27
1588132376,2020-04-29 05:52,471.00,-27
1588132436,2020-04-29 05:53,469.00,-29
1588132496,2020-04-29 05:54,472.00,-28
1588132557,2020-04-29 05:55,474.00,-28
1588132617,2020-04-29 05:56,472.00,-29
1588132677,2020-04-29 05:57,470.00,-27
1588132737,2020-04-29 05:58,467.00,-29
1588132797,2020-04-29 05:59,464.00,-30
1588132857,2020-04-29 06:00,465.00,-31
1588132917,2020-04-29 06:01,469.00,-27
1588132977,2020-04-29 06:02,470.00,-29
1588133037,2020-04-29 06:03,474.00,-27
1588133097,2020-04-29 06:04,472.00,-27
1588133157,2020-04-29 06:05,472.00,-30
1588133217,2020-04-29 06:06,471.00,-27
1588133277,2020-04-29 06:07,472.00,-28
1588133338,2020-04-29 06:08,470.00,-28
1588133398,2020-04-29 06:09,469.00,-27
1588133458,2020-04-29 06:10,456.00,-30
1588133518,2020-04-29 06:11,458.00,-28
1588133578,2020-04-29 06:12,459.00,-29
1588133638,2020-04-29 06:13,457.00,-28
1588133698,2020-04-29 06:14,455.00,-28
1588133758,2020-04-29 06:15,456.00,-28
1588133818,2020-04-29 06:16,458.00,-27
1588133878,2020-04-29 06:17,461.00,-28
1588133938,2020-04-29 06:18,462.00,-31
1588133998,2020-04-29 06:19,459.00,-29
1588134058,2020-04-29 06:20,467.00,-28
1588134118,2020-04-29 06:21,471.00,-27
1588134178,2020-04-29 06:22,473.00,-30
1588134238,2020-04-29 06:23,468.00,-27
1588134298,2020-04-29 06:24,472.00,-29
1588134359,2020-04-29 06:25,473.00,-29
1588134419,2020-04-29 06:26,472.00,-27
1588134479,2020-04-29 06:27,468.00,-29
1588134539,2020-04-29 06:28,466.00,-27
1588134599,2020-04-29 06:29,462.00,-27
1588134659,2020-04-29 06:30,467.00,-29
1588134719,2020-04-29 06:31,466.00,-27
1588134779,2020-04-29 06:32,465.00,-28
1588134839,2020-04-29 06:33,459.00,-28
1588134899,2020-04-29 06:34,459.00,-28
1588134959,2020-04-29 06:35,462.00,-29
1588135019,2020-04-29 06:36,460.00,-29
1588135079,2020-04-29 06:37,457.00,-29
1588135139,2020-04-29 06:38,453.00,-29
1588135199,2020-04-29 06:39,454.00,-28
1588135259,2020-04-29 06:40,453.00,-28
1588135319,2020-04-29 06:41,452.00,-28
1588135380,2020-04-29 06:43,455.00,-29
1588135440,2020-04-29 06:44,454.00,-28
1588135500,2020-04-29 06:45,456.00,-32
1588135560,2020-04-29 06:46,458.00,-29
1588135620,2020-04-29 06:47,459.00,-29
1588135680,2020-04-29 06:48,456.00,-29
1588135740,2020-04-29 06:49,456.00,-29
1588135800,2020-04-29 06:50,454.00,-29
1588135860,2020-04-29 06:51,454.00,-29
1588135920,2020-04-29 06:52,458.00,-31
1588135980,2020-04-29 06:53,456.00,-30
1588136040,2020-04-29 06:54,454.00,-28
1588136100,2020-04-29 06:55,454.00,-29
1588136160,2020-04-29 06:56,451.00,-30
1588136220,2020-04-29 06:57,455.00,-29
1588136280,2020-04-29 06:58,457.00,-29
1588136340,2020-04-29 06:59,456.00,-28
1588136400,2020-04-29 07:00,458.00,-28
1588136461,2020-04-29 07:01,456.00,-29
1588136521,2020-04-29 07:02,454.00,-29
1588136581,2020-04-29 07:03,452.00,-35
1588136641,2020-04-29 07:04,450.00,-30
1588136701,2020-04-29 07:05,448.00,-29
1588136761,2020-04-29 07:06,451.00,-28
1588136821,2020-04-29 07:07,453.00,-30
1588136881,2020-04-29 07:08,450.00,-29
1588136941,2020-04-29 07:09,453.00,-31
1588137001,2020-04-29 07:10,452.00,-30
1588137061,2020-04-29 07:11,452.00,-28
1588137121,2020-04-29 07:12,453.00,-30
1588137181,2020-04-29 07:13,455.00,-28
1588137241,2020-04-29 07:14,453.00,-29
1588137302,2020-04-29 07:15,455.00,-28
1588137362,2020-04-29 07:16,444.00,-29
1588137422,2020-04-29 07:17,446.00,-28
1588137482,2020-04-29 07:18,447.00,-29
1588137542,2020-04-29 07:19,449.00,-30
1588137602,2020-04-29 07:20,450.00,-28
1588137662,2020-04-29 07:21,449.00,-30
1588137722,2020-04-29 07:22,447.00,-29
1588137782,2020-04-29 07:23,445.00,-28
1588137842,2020-04-29 07:24,447.00,-28
1588137902,2020-04-29 07:25,448.00,-28
1588137962,2020-04-29 07:26,447.00,-28
1588138022,2020-04-29 07:27,450.00,-28
1588138083,2020-04-29 07:28,446.00,-30
1588138143,2020-04-29 07:29,448.00,-32
1588138203,2020-04-29 07:30,449.00,-30
1588138263,2020-04-29 07:31,449.00,-29
1588138323,2020-04-29 07:32,449.00,-30
1588138383,2020-04-29 07:33,449.00,-29
1588138443,2020-04-29 07:34,448.00,-30
1588138503,2020-04-29 07:35,450.00,-29
1588138563,2020-04-29 07:36,450.00,-31
1588138624,2020-04-29 07:37,452.00,-30
1588138684,2020-04-29 07:38,453.00,-29
1588138744,2020-04-29 07:39,451.00,-31
1588138804,2020-04-29 07:40,452.00,-31
1588138864,2020-04-29 07:41,450.00,-29
1588138924,2020-04-29 07:42,449.00,-31
1588138985,2020-04-29 07:43,449.00,-30
1588139045,2020-04-29 07:44,449.00,-29
1588139105,2020-04-29 07:45,449.00,-29
1588139165,2020-04-29 07:46,449.00,-29
1588139225,2020-04-29 07:47,450.00,-29
1588139285,2020-04-29 07:48,449.00,-29
1588139345,2020-04-29 07:49,449.00,-29
1588139406,2020-04-29 07:50,449.00,-30
1588139466,2020-04-29 07:51,452.00,-30
1588139526,2020-04-29 07:52,453.00,-31
1588139586,2020-04-29 07:53,453.00,-30
1588139646,2020-04-29 07:54,456.00,-30
1588139706,2020-04-29 07:55,455.00,-32
1588139766,2020-04-29 07:56,455.00,-31
1588139827,2020-04-29 07:57,453.00,-30
1588139887,2020-04-29 07:58,456.00,-30
1588139947,2020-04-29 07:59,456.00,-31
1588140007,2020-04-29 08:00,456.00,-29
1588140067,2020-04-29 08:01,453.00,-31
1588140127,2020-04-29 08:02,456.00,-30
1588140187,2020-04-29 08:03,455.00,-30
1588140247,2020-04-29 08:04,453.00,-32
1588140307,2020-04-29 08:05,456.00,-29
1588140368,2020-04-29 08:06,457.00,-30
1588140428,2020-04-29 08:07,458.00,-30
1588140488,2020-04-29 08:08,459.00,-30
1588140548,2020-04-29 08:09,458.00,-33
1588140608,2020-04-29 08:10,461.00,-31
1588140668,2020-04-29 08:11,456.00,-31
1588140729,2020-04-29 08:12,455.00,-31
1588140789,2020-04-29 08:13,456.00,-30
1588140849,2020-04-29 08:14,458.00,-31
1588140909,2020-04-29 08:15,458.00,-30
1588140969,2020-04-29 08:16,458.00,-30
1588141029,2020-04-29 08:17,457.00,-30
1588141090,2020-04-29 08:18,456.00,-29
1588141150,2020-04-29 08:19,458.00,-29
1588141210,2020-04-29 08:20,457.00,-29
1588141270,2020-04-29 08:21,457.00,-30
1588141330,2020-04-29 08:22,455.00,-30
1588141390,2020-04-29 08:23,454.00,-29
1588141451,2020-04-29 08:24,455.00,-30
1588141511,2020-04-29 08:25,455.00,-30
1588141571,2020-04-29 08:26,452.00,-30
1588141631,2020-04-29 08:27,454.00,-31
1588141691,2020-04-29 08:28,451.00,-32
1588141751,2020-04-29 08:29,451.00,-32
1588141812,2020-04-29 08:30,450.00,-31
1588141872,2020-04-29 08:31,450.00,-31
1588141932,2020-04-29 08:32,449.00,-30
1588141992,2020-04-29 08:33,450.00,-34
1588142052,2020-04-29 08:34,449.00,-35
1588142112,2020-04-29 08:35,449.00,-35
1588142173,2020-04-29 08:36,450.00,-35
1588142233,2020-04-29 08:37,452.00,-32
1588142293,2020-04-29 08:38,451.00,-35
1588142353,2020-04-29 08:39,449.00,-36
1588142413,2020-04-29 08:40,448.00,-34
1588142473,2020-04-29 08:41,450.00,-33
1588142534,2020-04-29 08:42,452.00,-31
1588142594,2020-04-29 08:43,451.00,-33
1588142654,2020-04-29 08:44,451.00,-32
1588142714,2020-04-29 08:45,448.00,-32
1588142774,2020-04-29 08:46,453.00,-32
1588142834,2020-04-29 08:47,453.00,-33
1588142894,2020-04-29 08:48,451.00,-35
1588142954,2020-04-29 08:49,451.00,-33
1588143014,2020-04-29 08:50,450.00,-29
1588143075,2020-04-29 08:51,454.00,-30
1588143135,2020-04-29 08:52,451.00,-35
1588143195,2020-04-29 08:53,448.00,-31
1588143255,2020-04-29 08:54,450.00,-33
1588143315,2020-04-29 08:55,450.00,-30
1588143375,2020-04-29 08:56,452.00,-30
1588143435,2020-04-29 08:57,450.00,-31
1588143495,2020-04-29 08:58,450.00,-33
1588143555,2020-04-29 08:59,451.00,-34
1588143616,2020-04-29 09:00,451.00,-31
1588143676,2020-04-29 09:01,452.00,-32
1588143736,2020-04-29 09:02,449.00,-34
1588143796,2020-04-29 09:03,449.00,-33
1588143856,2020-04-29 09:04,450.00,-34
1588143916,2020-04-29 09:05,452.00,-31
1588143977,2020-04-29 09:06,454.00,-33
1588144037,2020-04-29 09:07,452.00,-33
1588144097,2020-04-29 09:08,452.00,-35
1588144157,2020-04-29 09:09,455.00,-32
1588144217,2020-04-29 09:10,453.00,-34
1588144277,2020-04-29 09:11,453.00,-30
1588144338,2020-04-29 09:12,452.00,-36
1588144398,2020-04-29 09:13,452.00,-29
1588144458,2020-04-29 09:14,452.00,-35
1588144519,2020-04-29 09:15,449.00,-31
1588144579,2020-04-29 09:16,451.00,-31
1588144639,2020-04-29 09:17,452.00,-30
1588144699,2020-04-29 09:18,452.00,-31
1588144759,2020-04-29 09:19,449.00,-32
1588144819,2020-04-29 09:20,452.00,-31
1588144880,2020-04-29 09:21,450.00,-31
1588144940,2020-04-29 09:22,447.00,-31
1588145000,2020-04-29 09:23,450.00,-31
1588145060,2020-04-29 09:24,451.00,-32
1588145121,2020-04-29 09:25,448.00,-31
1588145181,2020-04-29 09:26,450.00,-31
1588145241,2020-04-29 09:27,448.00,-34
1588145301,2020-04-29 09:28,449.00,-30
1588145361,2020-04-29 09:29,448.00,-33
1588145422,2020-04-29 09:30,449.00,-31
1588145482,2020-04-29 09:31,448.00,-31
1588145542,2020-04-29 09:32,443.00,-31
1588145602,2020-04-29 09:33,445.00,-35
1588145662,2020-04-29 09:34,443.00,-32
1588145722,2020-04-29 09:35,444.00,-34
1588145783,2020-04-29 09:36,452.00,-33
1588145843,2020-04-29 09:37,457.00,-33
1588145903,2020-04-29 09:38,455.00,-32
1588145963,2020-04-29 09:39,454.00,-32
1588146023,2020-04-29 09:40,454.00,-30
1588146083,2020-04-29 09:41,455.00,-33
1588146143,2020-04-29 09:42,453.00,-34
1588146203,2020-04-29 09:43,453.00,-31
1588146263,2020-04-29 09:44,455.00,-31
1588146324,2020-04-29 09:45,455.00,-30
1588146384,2020-04-29 09:46,454.00,-33
1588146444,2020-04-29 09:47,454.00,-33
1588146504,2020-04-29 09:48,455.00,-30
1588146564,2020-04-29 09:49,454.00,-32
1588146624,2020-04-29 09:50,453.00,-31
1588146684,2020-04-29 09:51,453.00,-30
1588146744,2020-04-29 09:52,454.00,-32
1588146805,2020-04-29 09:53,454.00,-31
1588146865,2020-04-29 09:54,456.00,-32
1588146925,2020-04-29 09:55,455.00,-34
1588146985,2020-04-29 09:56,453.00,-32
1588147045,2020-04-29 09:57,455.00,-31
1588147105,2020-04-29 09:58,456.00,-30
1588147165,2020-04-29 09:59,454.00,-31
1588147225,2020-04-29 10:00,456.00,-29
1588147285,2020-04-29 10:01,458.00,-30
1588147345,2020-04-29 10:02,454.00,-32
1588147405,2020-04-29 10:03,456.00,-30
1588147528,2020-04-29 10:05,455.00,-31
1588147588,2020-04-29 10:06,457.00,-30
1588147649,2020-04-29 10:07,457.00,-30
1588147709,2020-04-29 10:08,463.00,-30
1588147769,2020-04-29 10:09,461.00,-30
1588147829,2020-04-29 10:10,461.00,-31
1588147889,2020-04-29 10:11,463.00,-32
1588147949,2020-04-29 10:12,463.00,-30
1588148009,2020-04-29 10:13,458.00,-30
1588148069,2020-04-29 10:14,456.00,-32
1588148130,2020-04-29 10:15,459.00,-31
1588148190,2020-04-29 10:16,458.00,-30